GW1943 Weather Reports


Display with metric or nautical units.
time (UTC)temp
F
wind
direction
speed
MPH
gust
MPH
rain 1hr
in
rain 24hr
in
rain mn
in
humidity
%
barometer
mb
20260503215018 85 231 1.0 3.0 0.00 0.00 0.00 37 1012.9
20260503214516 84 224 0.0 3.0 0.00 0.00 0.00 38 1013.1
20260503214012 84 212 1.0 3.0 0.00 0.00 0.00 39 1012.9
20260503213511 84 214 2.0 5.0 0.00 0.00 0.00 41 1012.9
20260503213007 84 46 3.0 3.0 0.00 0.00 0.00 37 1013.1
20260503212505 84 219 1.0 2.0 0.00 0.00 0.00 40 1013.3
20260503212002 83 245 1.0 2.0 0.00 0.00 0.00 40 1013.1
20260503211458 81 236 1.0 2.0 0.00 0.00 0.00 45 1013.2
20260503210949 81 195 2.0 3.0 0.00 0.00 0.00 43 1013.0
20260503210446 80 27 3.0 5.0 0.00 0.00 0.00 43 1013.3
20260503205945 81 7 3.0 6.0 0.00 0.00 0.00 41 1013.4
20260503205443 82 212 0.0 1.0 0.00 0.00 0.00 46 1013.4
20260503204939 81 198 0.0 2.0 0.00 0.00 0.00 45 1013.7
20260503204436 80 210 0.0 2.0 0.00 0.00 0.00 44 1013.6
20260503203933 80 206 2.0 3.0 0.00 0.00 0.00 43 1013.5
20260503203431 79 186 1.0 3.0 0.00 0.00 0.00 44 1013.6
20260503202927 78 193 1.0 3.0 0.00 0.00 0.00 44 1013.6
20260503202426 78 6 4.0 5.0 0.00 0.00 0.00 44 1013.7
20260503201924 78 213 0.0 5.0 0.00 0.00 0.00 46 1013.7
20260503201421 79 40 2.0 2.0 0.00 0.00 0.00 44 1013.8
20260503200918 78 191 0.0 3.0 0.00 0.00 0.00 46 1013.9
20260503200414 79 220 1.0 3.0 0.00 0.00 0.00 47 1014.0
20260503195911 77 208 0.0 2.0 0.00 0.00 0.00 48 1013.9
20260503195409 77 196 1.0 2.0 0.00 0.00 0.00 46 1014.0
20260503194905 76 224 1.0 3.0 0.00 0.00 0.00 48 1014.0
20260503194401 76 262 1.0 6.0 0.00 0.00 0.00 49 1014.1
20260503193857 77 35 3.0 7.0 0.00 0.00 0.00 46 1014.2
20260503193353 77 215 1.0 2.0 0.00 0.00 0.00 46 1014.3
20260503192849 76 220 1.0 2.0 0.00 0.00 0.00 51 1014.4
20260503192345 76 193 0.0 0.0 0.00 0.00 0.00 51 1014.5
20260503191841 75 209 0.0 0.0 0.00 0.00 0.00 50 1014.3
20260503191338 75 215 0.0 0.0 0.00 0.00 0.00 52 1014.7
20260503190835 75 197 0.0 0.0 0.00 0.00 0.00 52 1014.7
20260503190332 74 224 0.0 0.0 0.00 0.00 0.00 54 1014.6
20260503185829 73 204 0.0 0.0 0.00 0.00 0.00 55 1014.6
20260503185325 74 160 0.0 0.0 0.00 0.00 0.00 54 1014.7
20260503184820 73 223 0.0 0.0 0.00 0.00 0.00 55 1014.8
20260503184316 73 221 0.0 0.0 0.00 0.00 0.00 58 1014.8
20260503183812 73 215 0.0 0.0 0.00 0.00 0.00 57 1014.8
20260503183309 73 222 0.0 0.0 0.00 0.00 0.00 59 1014.6
20260503182807 72 348 0.0 0.0 0.00 0.00 0.00 61 1014.8
20260503182306 72 218 0.0 0.0 0.00 0.00 0.00 62 1014.8
20260503181803 71 214 0.0 0.0 0.00 0.00 0.00 60 1014.8
20260503181300 71 191 0.0 0.0 0.00 0.00 0.00 60 1014.9
20260503180756 70 212 0.0 0.0 0.00 0.00 0.00 63 1014.7
20260503180254 70 217 0.0 0.0 0.00 0.00 0.00 67 1014.9
20260503175750 69 272 0.0 0.0 0.00 0.00 0.00 65 1015.1
20260503175248 69 47 0.0 0.0 0.00 0.00 0.00 64 1015.0
20260503174744 68 210 0.0 0.0 0.00 0.00 0.00 66 1015.0
20260503174242 68 212 0.0 0.0 0.00 0.00 0.00 65 1015.1
20260503173736 68 354 0.0 0.0 0.00 0.00 0.00 65 1015.0
20260503173233 68 205 0.0 0.0 0.00 0.00 0.00 67 1015.1
20260503172730 67 208 0.0 0.0 0.00 0.00 0.00 68 1015.0
20260503172227 67 197 0.0 0.0 0.00 0.00 0.00 65 1015.2
20260503171723 66 216 0.0 0.0 0.00 0.00 0.00 68 1015.0
20260503171221 66 235 0.0 0.0 0.00 0.00 0.00 68 1015.3
20260503170718 66 200 0.0 0.0 0.00 0.00 0.00 67 1015.2
20260503170215 66 195 0.0 0.0 0.00 0.00 0.00 67 1015.5
20260503160136 62 214 0.0 0.0 0.00 0.00 0.00 80 1015.4
20260503150606 57 208 0.0 0.0 0.00 0.00 0.00 90 1015.2
20260503130955 51 202 0.0 0.0 0.00 0.00 0.00 94 1015.4
20260503130453 51 202 0.0 0.0 0.00 0.00 0.00 94 1015.3
20260503110338 52 202 0.0 0.0 0.00 0.00 0.00 88 1015.4
20260503090218 55 202 0.0 0.0 0.00 0.00 0.00 80 1016.0
20260503081145 56 202 0.0 0.0 0.00 0.00 0.00 77 1015.9
20260503080641 57 202 0.0 0.0 0.00 0.00 0.00 76 1015.8
20260503080138 57 202 0.0 0.0 0.00 0.00 0.00 75 1015.9
20260503072614 58 202 0.0 0.0 0.00 0.00 0.00 72 1015.8
20260503072111 58 202 0.0 0.0 0.00 0.00 0.00 72 1015.9
20260503071608 59 202 0.0 0.0 0.00 0.00 0.00 71 1015.7
20260503071105 59 202 0.0 0.0 0.00 0.00 0.00 69 1015.7
20260503070601 60 202 0.0 0.0 0.00 0.00 0.00 68 1015.9
20260503055021 62 203 0.0 0.0 0.00 0.00 0.00 60 1015.6
20260503054517 63 202 0.0 0.0 0.00 0.00 0.00 59 1015.5
20260503054014 63 202 0.0 0.0 0.00 0.00 0.00 59 1015.5
20260503053512 63 202 0.0 0.0 0.00 0.00 0.00 59 1015.7
20260503053010 63 206 0.0 0.0 0.00 0.00 0.00 59 1015.6
20260503052506 63 201 0.0 0.0 0.00 0.00 0.00 60 1015.5
20260503052002 63 202 0.0 0.0 0.00 0.00 0.00 59 1015.5
20260503051458 63 202 0.0 0.0 0.00 0.00 0.00 60 1015.6
20260503050956 63 202 0.0 0.0 0.00 0.00 0.00 59 1015.7
20260503050451 64 202 0.0 0.0 0.00 0.00 0.00 57 1015.5
20260503045949 64 202 0.0 0.0 0.00 0.00 0.00 58 1015.6
20260503045446 64 202 0.0 0.0 0.00 0.00 0.00 57 1015.5
20260503044943 65 202 0.0 1.0 0.00 0.00 0.00 58 1015.5
20260503044440 64 199 0.0 1.0 0.00 0.00 0.00 56 1015.4
20260503043938 64 200 0.0 0.0 0.00 0.00 0.00 58 1015.2
20260503043433 64 199 0.0 0.0 0.00 0.00 0.00 58 1015.4
20260503042930 64 203 0.0 0.0 0.00 0.00 0.00 59 1015.5
20260503042427 63 202 0.0 0.0 0.00 0.00 0.00 60 1015.3
20260503041924 64 203 0.0 0.0 0.00 0.00 0.00 60 1015.4
20260503041420 64 203 0.0 0.0 0.00 0.00 0.00 62 1015.3
20260503040918 64 202 0.0 0.0 0.00 0.00 0.00 62 1015.3
20260503040415 65 202 0.0 0.0 0.00 0.00 0.00 61 1015.3
20260503035912 64 208 0.0 0.0 0.00 0.00 0.00 63 1015.2
20260503035409 64 219 0.0 1.0 0.00 0.00 0.00 62 1015.1
20260503034906 65 194 0.0 0.0 0.00 0.00 0.00 64 1015.0
20260503034404 65 194 0.0 0.0 0.00 0.00 0.00 64 1014.8
20260503033901 66 194 0.0 0.0 0.00 0.00 0.00 64 1014.7
20260503033358 66 194 0.0 0.0 0.00 0.00 0.00 63 1014.7
20260503032856 67 194 0.0 0.0 0.00 0.00 0.00 62 1014.7
20260503032355 68 194 0.0 0.0 0.00 0.00 0.00 60 1014.8
20260503031852 68 194 0.0 1.0 0.00 0.00 0.00 58 1014.6
20260503031349 69 195 0.0 0.0 0.00 0.00 0.00 58 1014.4
20260503030845 70 198 0.0 0.0 0.00 0.00 0.00 57 1014.4
20260503030342 70 199 0.0 0.0 0.00 0.00 0.00 56 1014.4
20260503025838 71 180 1.0 1.0 0.00 0.00 0.00 56 1014.2
20260503025336 71 120 2.0 2.0 0.00 0.00 0.00 56 1014.4
20260503024833 71 199 0.0 1.0 0.00 0.00 0.00 56 1014.4
20260503024330 72 198 1.0 2.0 0.00 0.00 0.00 54 1014.6
20260503023826 72 199 1.0 1.0 0.00 0.00 0.00 55 1014.2
20260503023324 72 186 0.0 2.0 0.00 0.00 0.00 54 1014.2
20260503022820 73 187 1.0 2.0 0.00 0.00 0.00 54 1014.0
20260503022315 73 201 0.0 1.0 0.00 0.00 0.00 54 1014.3
20260503021811 74 345 3.0 5.0 0.00 0.00 0.00 52 1014.2
20260503021308 74 219 1.0 1.0 0.00 0.00 0.00 53 1014.2
20260503020805 74 227 2.0 2.0 0.00 0.00 0.00 54 1014.1
20260503020303 75 187 0.0 5.0 0.00 0.00 0.00 55 1014.3
20260503015759 75 224 0.0 2.0 0.00 0.00 0.00 55 1014.1
20260503015256 75 193 0.0 1.0 0.00 0.00 0.00 54 1014.2
20260503014752 75 234 2.0 5.0 0.00 0.00 0.00 54 1014.3
20260503014250 75 36 0.0 3.0 0.00 0.00 0.00 53 1014.4
20260503013747 77 214 0.0 3.0 0.00 0.00 0.00 52 1014.3
20260503013244 77 197 0.0 2.0 0.00 0.00 0.00 51 1014.3
20260503012741 77 207 0.0 2.0 0.00 0.00 0.00 52 1014.2
20260503012239 76 76 0.0 1.0 0.00 0.00 0.00 52 1014.2
20260503011735 75 208 0.0 5.0 0.00 0.00 0.00 53 1014.1
20260503011232 76 316 3.0 5.0 0.00 0.00 0.00 51 1014.3
20260503010728 75 123 0.0 1.0 0.00 0.00 0.00 52 1014.4
20260503010225 76 55 3.0 3.0 0.00 0.00 0.00 51 1014.4
20260503005723 76 210 2.0 5.0 0.00 0.00 0.00 51 1014.3
20260503005220 76 236 2.0 5.0 0.00 0.00 0.00 50 1014.3
20260503004716 77 215 0.0 2.0 0.00 0.00 0.00 50 1014.4
20260503004215 77 79 1.0 3.0 0.00 0.00 0.00 50 1014.2
20260503003711 77 188 1.0 3.0 0.00 0.00 0.00 49 1014.5
20260503003208 76 37 4.0 5.0 0.00 0.00 0.00 49 1014.4
20260503002705 76 266 4.0 6.0 0.00 0.00 0.00 51 1014.5
20260503002202 75 212 3.0 7.0 0.00 0.00 0.00 50 1014.2
20260503001658 76 32 4.0 6.0 0.00 0.00 0.00 50 1014.4
20260503001154 76 223 3.0 3.0 0.00 0.00 0.00 50 1014.6
20260503000652 77 25 4.0 6.0 0.00 0.00 0.00 49 1014.8
20260503000149 77 207 0.0 3.0 0.00 0.00 0.00 53 1014.7
20260502235646 77 52 3.0 5.0 0.00 0.00 0.00 48 1014.6
20260502235144 77 211 1.0 3.0 0.00 0.00 0.00 49 1014.6
20260502234640 78 218 1.0 6.0 0.00 0.00 0.00 48 1014.7
20260502234138 77 201 1.0 3.0 0.00 0.00 0.00 49 1014.8
20260502233633 77 234 1.0 3.0 0.00 0.00 0.00 49 1014.8
20260502233130 77 125 3.0 5.0 0.00 0.00 0.00 48 1015.0
20260502232626 77 198 1.0 5.0 0.00 0.00 0.00 48 1015.0
20260502232124 77 217 0.0 1.0 0.00 0.00 0.00 53 1015.1
20260502231620 76 19 1.0 5.0 0.00 0.00 0.00 51 1015.2
20260502231118 76 189 2.0 5.0 0.00 0.00 0.00 50 1015.0
20260502230616 75 203 1.0 6.0 0.00 0.00 0.00 53 1015.1
20260502230114 76 40 2.0 5.0 0.00 0.00 0.00 51 1015.0
20260502225609 77 220 1.0 3.0 0.00 0.00 0.00 50 1015.2
20260502225107 76 194 1.0 2.0 0.00 0.00 0.00 51 1015.4
20260502224603 77 46 3.0 7.0 0.00 0.00 0.00 50 1015.4
20260502224100 77 220 3.0 3.0 0.00 0.00 0.00 48 1015.4
20260502223558 77 195 2.0 5.0 0.00 0.00 0.00 50 1015.4
20260502223056 75 210 3.0 5.0 0.00 0.00 0.00 52 1015.6
20260502222553 75 30 3.0 7.0 0.00 0.00 0.00 52 1015.6
20260502222049 75 110 2.0 6.0 0.00 0.00 0.00 53 1015.5
20260502221545 74 358 1.0 3.0 0.00 0.00 0.00 57 1015.8
20260502221043 74 20 1.0 5.0 0.00 0.00 0.00 55 1015.6
20260502220538 74 207 0.0 3.0 0.00 0.00 0.00 59 1015.8
20260502220035 73 237 4.0 6.0 0.00 0.00 0.00 58 1015.7
20260502215532 73 250 3.0 6.0 0.00 0.00 0.00 57 1016.1